TimeCST,TemperatureF,Dew PointF,Humidity,Sea Level PressureIn,VisibilityMPH,Wind Direction,Wind SpeedMPH,Gust SpeedMPH,PrecipitationIn,Events,Conditions,WindDirDegrees,DateUTC
12:53 AM,41.0,37.9,89,30.17,9.0,Calm,Calm,-,N/A,,Clear,0,2012-11-25 06:53:00
1:53 AM,43.0,39.0,86,30.16,10.0,ENE,3.5,-,N/A,,Clear,60,2012-11-25 07:53:00
2:53 AM,44.1,39.9,85,30.14,10.0,ENE,3.5,-,N/A,,Clear,70,2012-11-25 08:53:00
3:53 AM,45.0,41.0,86,30.14,10.0,ENE,3.5,-,N/A,,Clear,70,2012-11-25 09:53:00
4:53 AM,44.1,39.9,85,30.13,10.0,ENE,3.5,-,N/A,,Clear,60,2012-11-25 10:53:00
5:53 AM,45.0,42.1,90,30.14,10.0,NE,3.5,-,N/A,,Clear,50,2012-11-25 11:53:00
6:53 AM,45.0,42.1,90,30.14,10.0,Calm,Calm,-,N/A,,Clear,0,2012-11-25 12:53:00
7:53 AM,50.0,46.0,86,30.15,10.0,East,3.5,-,N/A,,Clear,80,2012-11-25 13:53:00
8:53 AM,57.0,46.9,69,30.16,10.0,ESE,10.4,-,N/A,,Clear,110,2012-11-25 14:53:00
9:53 AM,62.1,48.0,60,30.17,10.0,East,10.4,-,N/A,,Clear,100,2012-11-25 15:53:00
10:53 AM,64.0,51.1,63,30.15,10.0,ESE,10.4,-,N/A,,Clear,120,2012-11-25 16:53:00
11:53 AM,69.1,53.1,57,30.12,10.0,SE,8.1,17.3,N/A,,Clear,130,2012-11-25 17:53:00
12:53 PM,71.1,53.1,53,30.08,10.0,South,10.4,-,N/A,,Clear,170,2012-11-25 18:53:00
1:53 PM,71.1,53.1,53,30.06,10.0,South,11.5,-,N/A,,Clear,180,2012-11-25 19:53:00
2:53 PM,70.0,54.0,57,30.05,10.0,SSE,11.5,-,N/A,,Clear,150,2012-11-25 20:53:00
3:53 PM,68.0,55.0,63,30.04,10.0,SSE,13.8,-,N/A,,Clear,160,2012-11-25 21:53:00
4:53 PM,64.9,55.9,73,30.03,10.0,ESE,8.1,-,N/A,,Clear,120,2012-11-25 22:53:00
5:53 PM,61.0,55.9,83,30.03,10.0,ESE,9.2,-,N/A,,Scattered Clouds,110,2012-11-25 23:53:00
6:53 PM,62.1,59.0,90,30.04,10.0,ESE,6.9,-,N/A,,Mostly Cloudy,120,2012-11-26 00:53:00
7:53 PM,62.1,59.0,90,30.03,10.0,ESE,11.5,-,N/A,,Overcast,120,2012-11-26 01:53:00
8:12 PM,62.6,59.0,88,30.03,10.0,ESE,9.2,-,N/A,,Overcast,120,2012-11-26 02:12:00
8:40 PM,62.6,59.0,88,30.03,10.0,ESE,9.2,-,N/A,,Overcast,120,2012-11-26 02:40:00
8:53 PM,62.1,59.0,90,30.03,10.0,ESE,9.2,-,N/A,,Overcast,110,2012-11-26 02:53:00
9:53 PM,63.0,61.0,93,30.03,10.0,ESE,9.2,-,N/A,,Scattered Clouds,120,2012-11-26 03:53:00
10:53 PM,64.0,62.1,93,30.02,10.0,SE,10.4,-,N/A,,Partly Cloudy,130,2012-11-26 04:53:00
11:53 PM,64.9,63.0,93,30.00,10.0,ESE,10.4,-,N/A,,Scattered Clouds,120,2012-11-26 05:53:00